AP893 Weather Reports


time (UTC)temp
C
wind
direction
speed
KPH
gust
KPH
rain 1hr
cm
rain 24hr
cm
rain mn
cm
humidity
%
barometer
mb
20260901132009 11 86 0.0 0.0 0.00 0.00 0.00 83 1016.8
20260901131010 11 86 0.0 0.0 0.00 0.00 0.00 77 1016.9
20260901130009 11 86 0.0 0.0 0.00 0.00 0.00 73 1016.8
20260901125012 11 86 0.0 0.0 0.00 0.00 0.00 72 1016.4
20260901124009 11 86 0.0 8.0 0.00 0.00 0.00 74 1016.2
20260901122009 11 104 0.0 0.0 0.00 0.00 0.00 73 1016.2
20260901121009 11 104 0.0 0.0 0.00 0.00 0.00 72 1016.2
20260901120009 11 104 0.0 0.0 0.00 0.00 0.00 72 1016.2
20260901114009 11 113 1.6 4.8 0.00 0.00 0.00 72 1016.2
20260901113009 11 89 0.0 0.0 0.00 0.00 0.00 72 1016.2
20260901112009 11 89 0.0 0.0 0.00 0.00 0.00 72 1016.2
20260901111009 11 89 0.0 0.0 0.00 0.00 0.00 71 1016.0
20260901110010 11 89 0.0 0.0 0.00 0.00 0.00 71 1015.9
20260901105009 12 89 0.0 0.0 0.00 0.00 0.00 72 1015.9
20260901103009 12 89 0.0 0.0 0.00 0.00 0.00 71 1016.1
20260901101010 12 89 0.0 0.0 0.00 0.00 0.00 70 1016.1
20260901100009 12 89 0.0 0.0 0.00 0.00 0.00 69 1016.1
20260901095010 12 89 0.0 0.0 0.00 0.00 0.00 70 1016.2
20260901094010 12 89 0.0 0.0 0.00 0.00 0.00 69 1016.3
20260901093009 13 89 0.0 0.0 0.00 0.00 0.00 68 1016.3
20260901092010 13 89 0.0 0.0 0.00 0.00 0.00 67 1016.3
20260901091010 13 89 0.0 0.0 0.00 0.00 0.00 67 1016.3
20260901090009 13 89 0.0 8.0 0.00 0.00 0.00 67 1016.3
20260901085010 13 140 0.0 0.0 0.00 0.00 0.00 69 1016.4
20260901083010 13 140 0.0 0.0 0.00 0.00 0.00 68 1016.6
20260901082009 13 140 0.0 0.0 0.00 0.00 0.00 68 1016.7
20260901081010 13 140 0.0 0.0 0.00 0.00 0.00 68 1016.8
20260901080009 13 140 0.0 0.0 0.00 0.00 0.00 67 1016.9
20260901075010 13 140 0.0 0.0 0.00 0.00 0.00 65 1016.9
20260901074009 13 140 0.0 0.0 0.00 0.00 0.00 64 1016.9
20260901073010 13 140 0.0 0.0 0.00 0.00 0.00 63 1016.9
20260901072009 13 140 0.0 0.0 0.00 0.00 0.00 63 1016.8
20260901071010 13 140 0.0 0.0 0.00 0.00 0.00 63 1016.8
20260901070010 13 140 0.0 4.8 0.00 0.00 0.00 63 1016.7
20260901065010 13 224 1.6 4.8 0.00 0.00 0.00 62 1016.6
20260901064010 14 215 0.0 0.0 0.00 0.00 0.00 61 1016.6
20260901063010 14 215 0.0 0.0 0.00 0.00 0.00 61 1016.4
20260901062009 14 215 0.0 0.0 0.00 0.00 0.00 60 1016.4
20260901060009 15 215 0.0 0.0 0.00 0.00 0.00 59 1016.6
20260901055009 15 215 0.0 0.0 0.00 0.00 0.00 57 1016.6
20260901053010 16 215 0.0 0.0 0.00 0.00 0.00 54 1016.8
20260901051009 16 215 0.0 0.0 0.00 0.00 0.00 53 1016.9
20260901050009 17 215 0.0 0.0 0.00 0.00 0.00 51 1016.8
20260901045010 17 215 0.0 0.0 0.00 0.00 0.00 50 1016.8
20260901044010 17 215 0.0 0.0 0.00 0.00 0.00 47 1016.7
20260901043010 18 215 0.0 0.0 0.00 0.00 0.00 45 1016.7
20260901042009 18 215 0.0 0.0 0.00 0.00 0.00 44 1016.6
20260901040009 19 215 0.0 0.0 0.00 0.00 0.00 42 1016.4
20260901035010 19 215 0.0 0.0 0.00 0.00 0.00 41 1016.3
20260901034009 20 215 0.0 0.0 0.00 0.00 0.00 40 1016.2
20260901033010 20 215 0.0 0.0 0.00 0.00 0.00 39 1016.3
20260901032010 21 215 0.0 0.0 0.00 0.00 0.00 38 1016.2
20260901030009 21 215 0.0 0.0 0.00 0.00 0.00 36 1016.0
20260901025009 22 215 0.0 0.0 0.00 0.00 0.00 34 1016.0
20260901024009 22 215 0.0 0.0 0.00 0.00 0.00 33 1016.0
20260901023009 23 215 0.0 0.0 0.00 0.00 0.00 32 1015.9
20260901021010 24 215 0.0 0.0 0.00 0.00 0.00 30 1016.0
20260901020010 24 215 0.0 0.0 0.00 0.00 0.00 29 1016.1
20260901015010 25 215 0.0 0.0 0.00 0.00 0.00 28 1016.2
20260901014010 25 215 0.0 8.0 0.00 0.00 0.00 28 1016.1
20260901013009 25 248 0.0 9.7 0.00 0.00 0.00 27 1016.1
20260901012009 25 249 1.6 8.0 0.00 0.00 0.00 27 1016.2
20260901011010 26 287 0.0 4.8 0.00 0.00 0.00 26 1016.2
20260901010009 26 229 1.6 11.3 0.00 0.00 0.00 25 1016.3
20260901005009 27 305 0.0 8.0 0.00 0.00 0.00 23 1016.1
20260901004010 27 16 0.0 3.2 0.00 0.00 0.00 22 1016.1
20260901003009 27 207 0.0 11.3 0.00 0.00 0.00 21 1016.2
20260901002009 27 254 0.0 4.8 0.00 0.00 0.00 21 1016.2
20260901001009 28 237 4.8 14.5 0.00 0.00 0.00 19 1016.4
20260901000009 28 103 0.0 9.7 0.00 0.00 0.00 19 1016.4
20260831235009 28 262 3.2 14.5 0.00 0.00 0.00 18 1016.3
20260831233009 28 280 0.0 11.3 0.00 0.00 0.00 19 1016.4
20260831230009 28 289 0.0 8.0 0.00 0.00 0.00 20 1016.4
20260831225010 28 318 1.6 12.9 0.00 0.00 0.00 21 1016.6
20260831224009 28 303 3.2 16.1 0.00 0.00 0.00 22 1016.8
20260831222010 27 272 0.0 9.7 0.00 0.00 0.00 22 1016.9
20260831221010 28 303 3.2 14.5 0.00 0.00 0.00 22 1017.0
20260831220010 28 220 4.8 14.5 0.00 0.00 0.00 21 1016.9
20260831215009 28 343 6.4 14.5 0.00 0.00 0.00 21 1016.8
20260831213010 27 292 4.8 16.1 0.00 0.00 0.00 24 1016.9
20260831211010 27 318 8.0 14.5 0.00 0.00 0.00 25 1017.1
20260831210010 28 339 4.8 19.3 0.00 0.00 0.00 25 1017.0
20260831205009 28 1 3.2 14.5 0.00 0.00 0.00 24 1016.9
20260831204011 28 325 4.8 14.5 0.00 0.00 0.00 24 1016.9
20260831203010 28 358 3.2 16.1 0.00 0.00 0.00 24 1016.9
20260831202009 29 289 8.0 19.3 0.00 0.00 0.00 23 1016.9
20260831201010 29 271 4.8 14.5 0.00 0.00 0.00 23 1016.9
20260831200010 29 307 6.4 16.1 0.00 0.00 0.00 23 1016.9
20260831195010 30 243 6.4 19.3 0.00 0.00 0.00 22 1016.9
20260831194010 30 344 1.6 12.9 0.00 0.00 0.00 20 1016.9
20260831193010 30 3 0.0 8.0 0.00 0.00 0.00 20 1016.9
20260831192009 30 65 0.0 16.1 0.00 0.00 0.00 20 1016.9
20260831190009 28 129 8.0 16.1 0.00 0.00 0.00 20 1016.8
20260831185010 28 262 0.0 14.5 0.00 0.00 0.00 22 1016.8
20260831184010 28 264 3.2 19.3 0.00 0.00 0.00 22 1016.8
20260831183010 29 336 3.2 12.9 0.00 0.00 0.00 22 1016.7
20260831182010 29 271 6.4 14.5 0.00 0.00 0.00 22 1016.6
20260831181010 28 329 8.0 19.3 0.00 0.00 0.00 23 1016.4
20260831180009 28 74 0.0 4.8 0.00 0.00 0.00 24 1016.4
20260831175009 28 58 4.8 14.5 0.00 0.00 0.00 25 1016.4
20260831174010 27 304 4.8 12.9 0.00 0.00 0.00 26 1016.3
20260831173009 27 313 3.2 14.5 0.00 0.00 0.00 28 1016.3
20260831172009 27 0 1.6 14.5 0.00 0.00 0.00 28 1016.2
20260831165011 25 158 1.6 8.0 0.00 0.00 0.00 32 1015.9
20260831162009 24 124 0.0 8.0 0.00 0.00 0.00 37 1015.9
20260831161010 23 148 0.0 0.0 0.00 0.00 0.00 40 1015.9
20260831160010 22 148 1.6 9.7 0.00 0.00 0.00 43 1015.9
20260831155009 21 119 1.6 9.7 0.00 0.00 0.00 46 1016.0
20260831154009 20 149 1.6 11.3 0.00 0.00 0.00 48 1016.0
20260831152009 18 151 0.0 8.0 0.00 0.00 0.00 53 1015.9
20260831150009 17 137 3.2 11.3 0.00 0.00 0.00 57 1015.7
20260831145009 16 122 1.6 11.3 0.00 0.00 0.00 60 1015.6
20260831144009 15 144 1.6 8.0 0.00 0.00 0.00 63 1015.3
20260831143010 14 127 0.0 8.0 0.00 0.00 0.00 66 1015.3
20260831142010 13 141 0.0 9.7 0.00 0.00 0.00 68 989.9
20260831141010 13 93 0.0 4.8 0.00 0.00 0.00 71 1015.0
20260831140009 13 136 1.6 4.8 0.00 0.00 0.00 72 1014.9
20260831135009 13 212 0.0 0.0 0.00 0.00 0.00 72 1014.9
20260831134009 13 212 0.0 8.0 0.00 0.00 0.00 72 1014.9